Location: Angwan Shehu
(11.2514°N, 7.4613°E)
Time: 04:38:48
(UTC+00:00)

Cosmos 1680 Rocket - Pass Details

Date: 14 November 2019
Orbit: 759 x 782 km, 74.1° (Epoch: 08 December)

Event Time Altitude Azimuth Distance (km) Brightness Sun altitude
Rises 17:26:56 0° 195° (SSW) 3,208 7.2 -6.4°
Reaches altitude 10° 17:29:18 10° 197° (SSW) 2,282 6.5 -6.9°
Maximum altitude 17:34:28 78° 283° (WNW) 777 3.7 -8.2°
Drops below altitude 10° 17:39:38 10° 9° (N) 2,285 5.7 -9.4°
Sets 17:42:01 0° 11° (N) 3,212 6.4 -9.9°
